Year,Month,Day,Hour,Minute,Value (Times are PST for temperature in C)
2015,08,14,00,00,15.50
2015,08,14,00,01,15.40
2015,08,14,00,02,15.40
2015,08,14,00,03,15.40
2015,08,14,00,04,15.40
2015,08,14,00,05,15.40
2015,08,14,00,06,15.30
2015,08,14,00,07,15.30
2015,08,14,00,08,15.30
2015,08,14,00,09,15.30
2015,08,14,00,10,15.30
2015,08,14,00,11,15.20
2015,08,14,00,12,15.20
2015,08,14,00,13,15.20
2015,08,14,00,14,15.20
2015,08,14,00,15,15.20
2015,08,14,00,16,15.10
2015,08,14,00,17,15.00
2015,08,14,00,18,14.90
2015,08,14,00,19,14.90
2015,08,14,00,20,14.90
2015,08,14,00,21,14.90
2015,08,14,00,22,14.90
2015,08,14,00,23,14.90
2015,08,14,00,24,14.90
2015,08,14,00,25,14.90
2015,08,14,00,26,14.90
2015,08,14,00,27,14.90
2015,08,14,00,28,14.90
2015,08,14,00,29,14.90
2015,08,14,00,30,15.00
2015,08,14,00,31,14.90
2015,08,14,00,32,14.90
2015,08,14,00,33,14.90
2015,08,14,00,34,14.90
2015,08,14,00,35,14.90
2015,08,14,00,36,14.90
2015,08,14,00,37,14.80
2015,08,14,00,38,14.80
2015,08,14,00,39,14.70
2015,08,14,00,40,14.50
2015,08,14,00,41,14.40
2015,08,14,00,42,14.40
2015,08,14,00,43,14.40
2015,08,14,00,44,14.30
2015,08,14,00,45,14.30
2015,08,14,00,46,14.30
2015,08,14,00,47,14.30
2015,08,14,00,48,14.30
2015,08,14,00,49,14.20
2015,08,14,00,50,14.20
2015,08,14,00,51,14.20
2015,08,14,00,52,14.20
2015,08,14,00,53,14.20
2015,08,14,00,54,14.20
2015,08,14,00,55,14.20
2015,08,14,00,56,14.20
2015,08,14,00,57,14.10
2015,08,14,00,58,14.00
2015,08,14,00,59,13.90
2015,08,14,01,00,13.90
2015,08,14,01,01,13.80
2015,08,14,01,02,13.70
2015,08,14,01,03,13.70
2015,08,14,01,04,13.70
2015,08,14,01,05,13.70
2015,08,14,01,06,13.70
2015,08,14,01,07,13.60
2015,08,14,01,08,13.40
2015,08,14,01,09,13.40
2015,08,14,01,10,13.40
2015,08,14,01,11,13.30
2015,08,14,01,12,13.30
2015,08,14,01,13,13.30
2015,08,14,01,14,13.20
2015,08,14,01,15,13.10
2015,08,14,01,16,13.10
2015,08,14,01,17,13.10
2015,08,14,01,18,13.10
2015,08,14,01,19,13.10
2015,08,14,01,20,13.10
2015,08,14,01,21,13.10
2015,08,14,01,22,13.10
2015,08,14,01,23,13.00
2015,08,14,01,24,13.00
2015,08,14,01,25,13.10
2015,08,14,01,26,13.30
2015,08,14,01,27,13.30
2015,08,14,01,28,13.30
2015,08,14,01,29,13.40
2015,08,14,01,30,13.40
2015,08,14,01,31,13.40
2015,08,14,01,32,13.50
2015,08,14,01,33,13.50
2015,08,14,01,34,13.50
2015,08,14,01,35,13.40
2015,08,14,01,36,13.30
2015,08,14,01,37,13.30
2015,08,14,01,38,13.30
2015,08,14,01,39,13.30
2015,08,14,01,40,13.20
2015,08,14,01,41,13.20
2015,08,14,01,42,13.20
2015,08,14,01,43,13.20
2015,08,14,01,44,13.20
2015,08,14,01,45,13.20
2015,08,14,01,46,13.20
2015,08,14,01,47,13.20
2015,08,14,01,48,13.20
2015,08,14,01,49,13.10
2015,08,14,01,50,13.10
2015,08,14,01,51,13.10
2015,08,14,01,52,13.00
2015,08,14,01,53,13.00
2015,08,14,01,54,13.00
2015,08,14,01,55,13.00
2015,08,14,01,56,12.90
2015,08,14,01,57,12.90
2015,08,14,01,58,12.90
2015,08,14,01,59,13.00
2015,08,14,02,00,13.00
2015,08,14,02,01,13.00
2015,08,14,02,02,13.00
2015,08,14,02,03,12.90
2015,08,14,02,04,12.90
2015,08,14,02,05,12.90
2015,08,14,02,06,12.90
2015,08,14,02,07,12.90
2015,08,14,02,08,12.90
2015,08,14,02,09,12.80
2015,08,14,02,10,12.80
2015,08,14,02,11,12.80
2015,08,14,02,12,12.80
2015,08,14,02,13,12.70
2015,08,14,02,14,12.80
2015,08,14,02,15,12.80
2015,08,14,02,16,12.80
2015,08,14,02,17,12.90
2015,08,14,02,18,12.90
2015,08,14,02,19,12.90
2015,08,14,02,20,12.80
2015,08,14,02,21,12.70
2015,08,14,02,22,12.60
2015,08,14,02,23,12.50
2015,08,14,02,24,12.40
2015,08,14,02,25,12.40
2015,08,14,02,26,12.40
2015,08,14,02,27,12.40
2015,08,14,02,28,12.40
2015,08,14,02,29,12.40
2015,08,14,02,30,12.40
2015,08,14,02,31,12.50
2015,08,14,02,32,12.50
2015,08,14,02,33,12.50
2015,08,14,02,34,12.50
2015,08,14,02,35,12.50
2015,08,14,02,36,12.50
2015,08,14,02,37,12.50
2015,08,14,02,38,12.50
2015,08,14,02,39,12.50
2015,08,14,02,40,12.50
2015,08,14,02,41,12.50
2015,08,14,02,42,12.60
2015,08,14,02,43,12.60
2015,08,14,02,44,12.70
2015,08,14,02,45,12.70
2015,08,14,02,46,12.70
2015,08,14,02,47,12.80
2015,08,14,02,48,12.90
2015,08,14,02,49,13.00
2015,08,14,02,50,13.10
2015,08,14,02,51,13.20
2015,08,14,02,52,13.30
2015,08,14,02,53,13.30
2015,08,14,02,54,13.30
2015,08,14,02,55,13.30
2015,08,14,02,56,13.40
2015,08,14,02,57,13.40
2015,08,14,02,58,13.40
2015,08,14,02,59,13.30
2015,08,14,03,00,13.20
2015,08,14,03,01,13.00
2015,08,14,03,02,12.90
2015,08,14,03,03,12.80
2015,08,14,03,04,12.70
2015,08,14,03,05,12.70
2015,08,14,03,06,12.60
2015,08,14,03,07,12.60
2015,08,14,03,08,12.50
2015,08,14,03,09,12.50
2015,08,14,03,10,12.60
2015,08,14,03,11,12.60
2015,08,14,03,12,12.60
2015,08,14,03,13,12.70
2015,08,14,03,14,12.70
2015,08,14,03,15,12.80
2015,08,14,03,16,12.90
2015,08,14,03,17,13.00
2015,08,14,03,18,13.10
2015,08,14,03,19,13.20
2015,08,14,03,20,13.20
2015,08,14,03,21,13.30
2015,08,14,03,22,13.30
2015,08,14,03,23,13.30
2015,08,14,03,24,13.30
2015,08,14,03,25,13.30
2015,08,14,03,26,13.30
2015,08,14,03,27,13.30
2015,08,14,03,28,13.10
2015,08,14,03,29,13.00
2015,08,14,03,30,12.90
2015,08,14,03,31,13.00
2015,08,14,03,32,13.10
2015,08,14,03,33,13.20
2015,08,14,03,34,13.20
2015,08,14,03,35,13.20
2015,08,14,03,36,13.20
2015,08,14,03,37,13.10
2015,08,14,03,38,13.00
2015,08,14,03,39,12.80
2015,08,14,03,40,12.80
2015,08,14,03,41,12.80
2015,08,14,03,42,12.80
2015,08,14,03,43,12.80
2015,08,14,03,44,12.80
2015,08,14,03,45,12.90
2015,08,14,03,46,12.90
2015,08,14,03,47,12.90
2015,08,14,03,48,12.90
2015,08,14,03,49,12.90
2015,08,14,03,50,12.90
2015,08,14,03,51,12.90
2015,08,14,03,52,12.80
2015,08,14,03,53,12.70
2015,08,14,03,54,12.60
2015,08,14,03,55,12.40
2015,08,14,03,56,12.30
2015,08,14,03,57,12.20
2015,08,14,03,58,12.20
2015,08,14,03,59,12.20
2015,08,14,04,00,12.10
2015,08,14,04,01,12.10
2015,08,14,04,02,12.10
2015,08,14,04,03,12.10
2015,08,14,04,04,12.00
2015,08,14,04,05,12.00
2015,08,14,04,06,12.00
2015,08,14,04,07,12.00
2015,08,14,04,08,11.90
2015,08,14,04,09,11.90
2015,08,14,04,10,11.90
2015,08,14,04,11,11.90
2015,08,14,04,12,11.90
2015,08,14,04,13,11.90
2015,08,14,04,14,11.80
2015,08,14,04,15,11.80
2015,08,14,04,16,11.80
2015,08,14,04,17,11.80
2015,08,14,04,18,11.80
2015,08,14,04,19,11.80
2015,08,14,04,20,11.80
2015,08,14,04,21,11.80
2015,08,14,04,22,11.80
2015,08,14,04,23,11.90
2015,08,14,04,24,11.90
2015,08,14,04,25,11.90
2015,08,14,04,26,11.90
2015,08,14,04,27,12.00
2015,08,14,04,28,12.00
2015,08,14,04,29,12.00
2015,08,14,04,30,12.00
2015,08,14,04,31,12.00
2015,08,14,04,32,12.00
2015,08,14,04,33,11.90
2015,08,14,04,34,12.00
2015,08,14,04,35,12.00
2015,08,14,04,36,12.00
2015,08,14,04,37,12.10
2015,08,14,04,38,12.10
2015,08,14,04,39,12.10
2015,08,14,04,40,12.20
2015,08,14,04,41,12.20
2015,08,14,04,42,12.20
2015,08,14,04,43,12.20
2015,08,14,04,44,12.30
2015,08,14,04,45,12.30
2015,08,14,04,46,12.40
2015,08,14,04,47,12.40
2015,08,14,04,48,12.40
2015,08,14,04,49,12.50
2015,08,14,04,50,12.60
2015,08,14,04,51,12.80
2015,08,14,04,52,13.00
2015,08,14,04,53,13.20
2015,08,14,04,54,13.40
2015,08,14,04,55,13.50
2015,08,14,04,56,13.40
2015,08,14,04,57,13.40
2015,08,14,04,58,13.60
2015,08,14,04,59,13.60
2015,08,14,05,00,13.80
2015,08,14,05,01,14.00
2015,08,14,05,02,14.20
2015,08,14,05,03,14.30
2015,08,14,05,04,14.40
2015,08,14,05,05,14.50
2015,08,14,05,06,14.50
2015,08,14,05,07,14.40
2015,08,14,05,08,14.20
2015,08,14,05,09,14.00
2015,08,14,05,10,13.80
2015,08,14,05,11,13.70
2015,08,14,05,12,13.60
2015,08,14,05,13,13.50
2015,08,14,05,14,13.40
2015,08,14,05,15,13.40
2015,08,14,05,16,13.30
2015,08,14,05,17,13.30
2015,08,14,05,18,13.20
2015,08,14,05,19,13.10
2015,08,14,05,20,13.00
2015,08,14,05,21,12.90
2015,08,14,05,22,12.80
2015,08,14,05,23,12.80
2015,08,14,05,24,12.80
2015,08,14,05,25,12.80
2015,08,14,05,26,12.80
2015,08,14,05,27,12.90
2015,08,14,05,28,12.80
2015,08,14,05,29,12.80
2015,08,14,05,30,12.80
2015,08,14,05,31,12.70
2015,08,14,05,32,12.70
2015,08,14,05,33,12.70
2015,08,14,05,34,12.70
2015,08,14,05,35,12.70
2015,08,14,05,36,12.70
2015,08,14,05,37,12.70
2015,08,14,05,38,12.70
2015,08,14,05,39,12.70
2015,08,14,05,40,12.60
2015,08,14,05,41,12.60
2015,08,14,05,42,12.50
2015,08,14,05,43,12.50
2015,08,14,05,44,12.50
2015,08,14,05,45,12.50
2015,08,14,05,46,12.50
2015,08,14,05,47,12.60
2015,08,14,05,48,12.60
2015,08,14,05,49,12.60
2015,08,14,05,50,12.70
2015,08,14,05,51,12.70
2015,08,14,05,52,12.80
2015,08,14,05,53,12.80
2015,08,14,05,54,12.90
2015,08,14,05,55,12.90
2015,08,14,05,56,13.00
2015,08,14,05,57,13.00
2015,08,14,05,58,13.00
2015,08,14,05,59,12.90
2015,08,14,06,00,12.90
2015,08,14,06,01,12.90
2015,08,14,06,02,12.90
2015,08,14,06,03,13.00
2015,08,14,06,04,13.00
2015,08,14,06,05,13.10
2015,08,14,06,06,13.10
2015,08,14,06,07,13.10
2015,08,14,06,08,13.10
2015,08,14,06,09,13.10
2015,08,14,06,10,13.10
2015,08,14,06,11,13.00
2015,08,14,06,12,13.00
2015,08,14,06,13,12.90
2015,08,14,06,14,12.90
2015,08,14,06,15,12.90
2015,08,14,06,16,12.90
2015,08,14,06,17,12.90
2015,08,14,06,18,13.00
2015,08,14,06,19,13.00
2015,08,14,06,20,13.00
2015,08,14,06,21,13.00
2015,08,14,06,22,13.00
2015,08,14,06,23,12.90
2015,08,14,06,24,12.90
2015,08,14,06,25,12.80
2015,08,14,06,26,12.70
2015,08,14,06,27,12.60
2015,08,14,06,28,12.50
2015,08,14,06,29,12.60
2015,08,14,06,30,12.60
2015,08,14,06,31,12.60
2015,08,14,06,32,12.60
2015,08,14,06,33,12.70
2015,08,14,06,34,12.70
2015,08,14,06,35,12.60
2015,08,14,06,36,12.50
2015,08,14,06,37,12.40
2015,08,14,06,38,12.50
2015,08,14,06,39,12.60
2015,08,14,06,40,12.70
2015,08,14,06,41,12.60
2015,08,14,06,42,12.60
2015,08,14,06,43,12.70
2015,08,14,06,44,12.80
2015,08,14,06,45,12.80
2015,08,14,06,46,12.80
2015,08,14,06,47,12.80
2015,08,14,06,48,12.80
2015,08,14,06,49,12.80
2015,08,14,06,50,12.80
2015,08,14,06,51,12.70
2015,08,14,06,52,12.80
2015,08,14,06,53,12.70
2015,08,14,06,54,12.70
2015,08,14,06,55,12.80
2015,08,14,06,56,12.80
2015,08,14,06,57,12.90
2015,08,14,06,58,12.90
2015,08,14,06,59,13.00
2015,08,14,07,00,13.10
2015,08,14,07,01,13.20
2015,08,14,07,02,13.20
2015,08,14,07,03,13.30
2015,08,14,07,04,13.30
2015,08,14,07,05,13.40
2015,08,14,07,06,13.40
2015,08,14,07,07,13.40
2015,08,14,07,08,13.40
2015,08,14,07,09,13.40
2015,08,14,07,10,13.40
2015,08,14,07,11,13.30
2015,08,14,07,12,13.30
2015,08,14,07,13,13.20
2015,08,14,07,14,13.20
2015,08,14,07,15,13.20
2015,08,14,07,16,13.20
2015,08,14,07,17,13.10
2015,08,14,07,18,13.00
2015,08,14,07,19,13.00
2015,08,14,07,20,12.90
2015,08,14,07,21,12.90
2015,08,14,07,22,12.90
2015,08,14,07,23,12.90
2015,08,14,07,24,12.90
2015,08,14,07,25,12.90
2015,08,14,07,26,12.80
2015,08,14,07,27,12.80
2015,08,14,07,28,12.70
2015,08,14,07,29,12.60
2015,08,14,07,30,12.60
2015,08,14,07,31,12.60
2015,08,14,07,32,12.60
2015,08,14,07,33,12.60
2015,08,14,07,34,12.50
2015,08,14,07,35,12.60
2015,08,14,07,36,12.60
2015,08,14,07,37,12.60
2015,08,14,07,38,12.60
2015,08,14,07,39,12.60
2015,08,14,07,40,12.60
2015,08,14,07,41,12.60
2015,08,14,07,42,12.70
2015,08,14,07,43,12.70
2015,08,14,07,44,12.70
2015,08,14,07,45,12.80
2015,08,14,07,46,12.80
2015,08,14,07,47,12.80
2015,08,14,07,48,12.80
2015,08,14,07,49,12.70
2015,08,14,07,50,12.70
2015,08,14,07,51,12.70
2015,08,14,07,52,12.70
2015,08,14,07,53,12.60
2015,08,14,07,54,12.60
2015,08,14,07,55,12.60
2015,08,14,07,56,12.60
2015,08,14,07,57,12.60
2015,08,14,07,58,12.60
2015,08,14,07,59,12.70
2015,08,14,08,00,12.70
2015,08,14,08,01,12.70
2015,08,14,08,02,12.70
2015,08,14,08,03,12.70
2015,08,14,08,04,12.70
2015,08,14,08,05,12.70
2015,08,14,08,06,12.70
2015,08,14,08,07,12.70
2015,08,14,08,08,12.70
2015,08,14,08,09,12.80
2015,08,14,08,10,12.80
2015,08,14,08,11,12.80
2015,08,14,08,12,13.00
2015,08,14,08,13,13.20
2015,08,14,08,14,13.30
2015,08,14,08,15,13.40
2015,08,14,08,16,13.40
2015,08,14,08,17,13.30
2015,08,14,08,18,13.20
2015,08,14,08,19,13.00
2015,08,14,08,20,12.90
2015,08,14,08,21,12.80
2015,08,14,08,22,12.80
2015,08,14,08,23,12.70
2015,08,14,08,24,12.70
2015,08,14,08,25,12.70
2015,08,14,08,26,12.70
2015,08,14,08,27,12.70
2015,08,14,08,28,12.70
2015,08,14,08,29,12.70
2015,08,14,08,30,12.70
2015,08,14,08,31,12.70
2015,08,14,08,32,12.80
2015,08,14,08,33,12.80
2015,08,14,08,34,12.80
2015,08,14,08,35,12.80
2015,08,14,08,36,12.80
2015,08,14,08,37,12.70
2015,08,14,08,38,12.70
2015,08,14,08,39,12.70
2015,08,14,08,40,12.60
2015,08,14,08,41,12.60
2015,08,14,08,42,12.60
2015,08,14,08,43,12.60
2015,08,14,08,44,12.60
2015,08,14,08,45,12.60
2015,08,14,08,46,12.60
2015,08,14,08,47,12.60
2015,08,14,08,48,12.70
2015,08,14,08,49,12.60
2015,08,14,08,50,12.60
2015,08,14,08,51,12.60
2015,08,14,08,52,12.60
2015,08,14,08,53,12.60
2015,08,14,08,54,12.60
2015,08,14,08,55,12.60
2015,08,14,08,56,12.50
2015,08,14,08,57,12.50
2015,08,14,08,58,12.50
2015,08,14,08,59,12.50
2015,08,14,09,00,12.40
2015,08,14,09,01,12.40
2015,08,14,09,02,12.40
2015,08,14,09,03,12.40
2015,08,14,09,04,12.40
2015,08,14,09,05,12.40
2015,08,14,09,06,12.30
2015,08,14,09,07,12.30
2015,08,14,09,08,12.30
2015,08,14,09,09,12.30
2015,08,14,09,10,12.40
2015,08,14,09,11,12.40
2015,08,14,09,12,12.40
2015,08,14,09,13,12.40
2015,08,14,09,14,12.40
2015,08,14,09,15,12.40
2015,08,14,09,16,12.40
2015,08,14,09,17,12.40
2015,08,14,09,18,12.50
2015,08,14,09,19,12.50
2015,08,14,09,20,12.50
2015,08,14,09,21,12.50
2015,08,14,09,22,12.50
2015,08,14,09,23,12.40
2015,08,14,09,24,12.40
2015,08,14,09,25,12.40
2015,08,14,09,26,12.40
2015,08,14,09,27,12.40
2015,08,14,09,28,12.40
2015,08,14,09,29,12.40
2015,08,14,09,30,12.40
2015,08,14,09,31,12.40
2015,08,14,09,32,12.40
2015,08,14,09,33,12.40
2015,08,14,09,34,12.40
2015,08,14,09,35,12.40
2015,08,14,09,36,12.40
2015,08,14,09,37,12.40
2015,08,14,09,38,12.40
2015,08,14,09,39,12.40
2015,08,14,09,40,12.40
2015,08,14,09,41,12.40
2015,08,14,09,42,12.40
2015,08,14,09,43,12.40
2015,08,14,09,44,12.40
2015,08,14,09,45,12.40
2015,08,14,09,46,12.40
2015,08,14,09,47,12.40
2015,08,14,09,48,12.40
2015,08,14,09,49,12.40
2015,08,14,09,50,12.40
2015,08,14,09,51,12.40
2015,08,14,09,52,12.40
2015,08,14,09,53,12.40
2015,08,14,09,54,12.40
2015,08,14,09,55,12.40
2015,08,14,09,56,12.40
2015,08,14,09,57,12.40
2015,08,14,09,58,12.50
2015,08,14,09,59,12.60
2015,08,14,10,00,12.60
2015,08,14,10,01,12.60
2015,08,14,10,02,12.60
2015,08,14,10,03,12.60
2015,08,14,10,04,12.60
2015,08,14,10,05,12.60
2015,08,14,10,06,12.60
2015,08,14,10,07,12.70
2015,08,14,10,08,12.70
2015,08,14,10,09,12.70
2015,08,14,10,10,12.70
2015,08,14,10,11,12.70
2015,08,14,10,12,12.70
2015,08,14,10,13,12.60
2015,08,14,10,14,12.60
2015,08,14,10,15,12.60
2015,08,14,10,16,12.60
2015,08,14,10,17,12.60
2015,08,14,10,18,12.70
2015,08,14,10,19,12.70
2015,08,14,10,20,12.70
2015,08,14,10,21,12.70
2015,08,14,10,22,12.70
2015,08,14,10,23,12.70
2015,08,14,10,24,12.80
2015,08,14,10,25,12.70
2015,08,14,10,26,12.80
2015,08,14,10,27,12.80
2015,08,14,10,28,12.80
2015,08,14,10,29,12.90
2015,08,14,10,30,12.80
2015,08,14,10,31,12.80
2015,08,14,10,32,12.80
2015,08,14,10,33,12.80
2015,08,14,10,34,12.80
2015,08,14,10,35,12.80
2015,08,14,10,36,12.80
2015,08,14,10,37,12.80
2015,08,14,10,38,12.80
2015,08,14,10,39,12.80
2015,08,14,10,40,12.90
2015,08,14,10,41,12.90
2015,08,14,10,42,12.90
2015,08,14,10,43,12.90
2015,08,14,10,44,12.90
2015,08,14,10,45,12.90
2015,08,14,10,46,12.90
2015,08,14,10,47,12.90
2015,08,14,10,48,12.90
2015,08,14,10,49,12.90
2015,08,14,10,50,12.90
2015,08,14,10,51,12.90
2015,08,14,10,52,12.90
2015,08,14,10,53,13.00
2015,08,14,10,54,13.00
2015,08,14,10,55,13.00
2015,08,14,10,56,13.00
2015,08,14,10,57,13.00
2015,08,14,10,58,13.00
2015,08,14,10,59,13.10
2015,08,14,11,00,13.10
2015,08,14,11,01,13.20
2015,08,14,11,02,13.20
2015,08,14,11,03,13.20
2015,08,14,11,04,13.20
2015,08,14,11,05,13.20
2015,08,14,11,06,13.20
2015,08,14,11,07,13.10
2015,08,14,11,08,13.10
2015,08,14,11,09,13.10
2015,08,14,11,10,13.10
2015,08,14,11,11,13.10
2015,08,14,11,12,13.20
2015,08,14,11,13,13.30
2015,08,14,11,14,13.30
2015,08,14,11,15,13.30
2015,08,14,11,16,13.30
2015,08,14,11,17,13.30
2015,08,14,11,18,13.30
2015,08,14,11,19,13.20
2015,08,14,11,20,13.10
2015,08,14,11,21,13.10
2015,08,14,11,22,13.10
2015,08,14,11,23,13.20
2015,08,14,11,24,13.20
2015,08,14,11,25,13.20
2015,08,14,11,26,13.30
2015,08,14,11,27,13.30
2015,08,14,11,28,13.30
2015,08,14,11,29,13.30
2015,08,14,11,30,13.30
2015,08,14,11,31,13.40
2015,08,14,11,32,13.30
2015,08,14,11,33,13.30
2015,08,14,11,34,13.30
2015,08,14,11,35,13.30
2015,08,14,11,36,13.30
2015,08,14,11,37,13.40
2015,08,14,11,38,13.40
2015,08,14,11,39,13.40
2015,08,14,11,40,13.40
2015,08,14,11,41,13.40
2015,08,14,11,42,13.50
2015,08,14,11,43,13.60
2015,08,14,11,44,13.70
2015,08,14,11,45,13.80
2015,08,14,11,46,13.80
2015,08,14,11,47,13.80
2015,08,14,11,48,13.90
2015,08,14,11,49,13.90
2015,08,14,11,50,13.90
2015,08,14,11,51,13.90
2015,08,14,11,52,13.90
2015,08,14,11,53,13.90
2015,08,14,11,54,13.90
2015,08,14,11,55,13.80
2015,08,14,11,56,13.60
2015,08,14,11,57,13.50
2015,08,14,11,58,13.40
2015,08,14,11,59,13.50
2015,08,14,12,00,13.60
2015,08,14,12,01,13.60
2015,08,14,12,02,13.50
2015,08,14,12,03,13.50
2015,08,14,12,04,13.60
2015,08,14,12,05,13.70
2015,08,14,12,06,13.80
2015,08,14,12,07,14.00
2015,08,14,12,08,14.10
2015,08,14,12,09,14.10
2015,08,14,12,10,14.00
2015,08,14,12,11,14.00
2015,08,14,12,12,14.00
2015,08,14,12,13,13.90
2015,08,14,12,14,13.90
2015,08,14,12,15,13.90
2015,08,14,12,16,13.90
2015,08,14,12,17,13.90
2015,08,14,12,18,14.00
2015,08,14,12,19,14.10
2015,08,14,12,20,14.20
2015,08,14,12,21,14.20
2015,08,14,12,22,14.20
2015,08,14,12,23,14.30
2015,08,14,12,24,14.20
2015,08,14,12,25,14.20
2015,08,14,12,26,14.20
2015,08,14,12,27,14.20
2015,08,14,12,28,14.20
2015,08,14,12,29,14.10
2015,08,14,12,30,14.10
2015,08,14,12,31,14.10
2015,08,14,12,32,14.00
2015,08,14,12,33,13.90
2015,08,14,12,34,13.80
2015,08,14,12,35,13.80
2015,08,14,12,36,13.90
2015,08,14,12,37,13.90
2015,08,14,12,38,13.90
2015,08,14,12,39,13.90
2015,08,14,12,40,13.80
2015,08,14,12,41,13.70
2015,08,14,12,42,13.70
2015,08,14,12,43,13.60
2015,08,14,12,44,13.70
2015,08,14,12,45,13.60
2015,08,14,12,46,13.60
2015,08,14,12,47,13.80
2015,08,14,12,48,13.90
2015,08,14,12,49,14.10
2015,08,14,12,50,14.20
2015,08,14,12,51,14.20
2015,08,14,12,52,14.20
2015,08,14,12,53,14.10
2015,08,14,12,54,14.10
2015,08,14,12,55,14.10
2015,08,14,12,56,14.10
2015,08,14,12,57,14.10
2015,08,14,12,58,14.10
2015,08,14,12,59,14.10
2015,08,14,13,00,14.10
2015,08,14,13,01,14.10
2015,08,14,13,02,14.00
2015,08,14,13,03,13.90
2015,08,14,13,04,13.80
2015,08,14,13,05,13.70
2015,08,14,13,06,13.70
2015,08,14,13,07,13.70
2015,08,14,13,08,13.80
2015,08,14,13,09,13.90
2015,08,14,13,10,14.00
2015,08,14,13,11,14.10
2015,08,14,13,12,14.30
2015,08,14,13,13,14.30
2015,08,14,13,14,14.20
2015,08,14,13,15,14.10
2015,08,14,13,16,14.00
2015,08,14,13,17,13.90
2015,08,14,13,18,13.90
2015,08,14,13,19,14.00
2015,08,14,13,20,14.00
2015,08,14,13,21,14.00
2015,08,14,13,22,14.00
2015,08,14,13,23,14.10
2015,08,14,13,24,14.10
2015,08,14,13,25,14.20
2015,08,14,13,26,14.20
2015,08,14,13,27,14.20
2015,08,14,13,28,14.20
2015,08,14,13,29,14.20
2015,08,14,13,30,14.10
2015,08,14,13,31,14.10
2015,08,14,13,32,14.10
2015,08,14,13,33,14.10
2015,08,14,13,34,14.20
2015,08,14,13,35,14.20
2015,08,14,13,36,14.30
2015,08,14,13,37,14.40
2015,08,14,13,38,14.50
2015,08,14,13,39,14.50
2015,08,14,13,40,14.50
2015,08,14,13,41,14.50
2015,08,14,13,42,14.50
2015,08,14,13,43,14.50
2015,08,14,13,44,14.50
2015,08,14,13,45,14.60
2015,08,14,13,46,14.60
2015,08,14,13,47,14.60
2015,08,14,13,48,14.60
2015,08,14,13,49,14.70
2015,08,14,13,50,14.80
2015,08,14,13,51,15.00
2015,08,14,13,52,15.20
2015,08,14,13,53,15.20
2015,08,14,13,54,15.00
2015,08,14,13,55,14.80
2015,08,14,13,56,14.70
2015,08,14,13,57,14.70
2015,08,14,13,58,14.70
2015,08,14,13,59,14.70
2015,08,14,14,00,14.80
2015,08,14,14,01,14.90
2015,08,14,14,02,15.10
2015,08,14,14,03,15.30
2015,08,14,14,04,15.30
2015,08,14,14,05,15.30
2015,08,14,14,06,15.20
2015,08,14,14,07,15.10
2015,08,14,14,08,15.00
2015,08,14,14,09,15.10
2015,08,14,14,10,15.10
2015,08,14,14,11,15.20
2015,08,14,14,12,15.20
2015,08,14,14,13,15.40
2015,08,14,14,14,15.50
2015,08,14,14,15,15.60
2015,08,14,14,16,15.50
2015,08,14,14,17,15.30
2015,08,14,14,18,15.20
2015,08,14,14,19,15.10
2015,08,14,14,20,15.00
2015,08,14,14,21,14.90
2015,08,14,14,22,14.80
2015,08,14,14,23,14.70
2015,08,14,14,24,14.80
2015,08,14,14,25,14.90
2015,08,14,14,26,15.00
2015,08,14,14,27,15.20
2015,08,14,14,28,15.30
2015,08,14,14,29,15.40
2015,08,14,14,30,15.50
2015,08,14,14,31,15.60
2015,08,14,14,32,15.70
2015,08,14,14,33,15.80
2015,08,14,14,34,15.80
2015,08,14,14,35,15.90
2015,08,14,14,36,16.00
2015,08,14,14,37,16.00
2015,08,14,14,38,16.10
2015,08,14,14,39,16.10
2015,08,14,14,40,16.20
2015,08,14,14,41,16.20
2015,08,14,14,42,16.20
2015,08,14,14,43,16.10
2015,08,14,14,44,16.10
2015,08,14,14,45,16.10
2015,08,14,14,46,16.10
2015,08,14,14,47,16.20
2015,08,14,14,48,16.20
2015,08,14,14,49,16.30
2015,08,14,14,50,16.30
2015,08,14,14,51,16.40
2015,08,14,14,52,16.50
2015,08,14,14,53,16.70
2015,08,14,14,54,16.70
2015,08,14,14,55,16.70
2015,08,14,14,56,16.80
2015,08,14,14,57,16.90
2015,08,14,14,58,17.00
2015,08,14,14,59,17.00
2015,08,14,15,00,17.00
2015,08,14,15,01,16.90
2015,08,14,15,02,16.70
2015,08,14,15,03,16.60
2015,08,14,15,04,16.50
2015,08,14,15,05,16.40
2015,08,14,15,06,16.30
2015,08,14,15,07,16.40
2015,08,14,15,08,16.50
2015,08,14,15,09,16.50
2015,08,14,15,10,16.40
2015,08,14,15,11,16.40
2015,08,14,15,12,16.30
2015,08,14,15,13,16.30
2015,08,14,15,14,16.40
2015,08,14,15,15,16.40
2015,08,14,15,16,16.50
2015,08,14,15,17,16.70
2015,08,14,15,18,16.70
2015,08,14,15,19,16.80
2015,08,14,15,20,16.80
2015,08,14,15,21,16.70
2015,08,14,15,22,16.70
2015,08,14,15,23,16.70
2015,08,14,15,24,16.90
2015,08,14,15,25,17.00
2015,08,14,15,26,17.10
2015,08,14,15,27,17.20
2015,08,14,15,28,17.10
2015,08,14,15,29,16.90
2015,08,14,15,30,16.80
2015,08,14,15,31,16.70
2015,08,14,15,32,16.50
2015,08,14,15,33,16.30
2015,08,14,15,34,16.20
2015,08,14,15,35,16.30
2015,08,14,15,36,16.40
2015,08,14,15,37,16.60
2015,08,14,15,38,16.60
2015,08,14,15,39,16.60
2015,08,14,15,40,16.60
2015,08,14,15,41,16.50
2015,08,14,15,42,16.40
2015,08,14,15,43,16.50
2015,08,14,15,44,16.60
2015,08,14,15,45,16.60
2015,08,14,15,46,16.60
2015,08,14,15,47,16.60
2015,08,14,15,48,16.60
2015,08,14,15,49,16.60
2015,08,14,15,50,16.70
2015,08,14,15,51,16.70
2015,08,14,15,52,16.80
2015,08,14,15,53,16.80
2015,08,14,15,54,16.70
2015,08,14,15,55,16.50
2015,08,14,15,56,16.50
2015,08,14,15,57,16.60
2015,08,14,15,58,16.80
2015,08,14,15,59,16.90
2015,08,14,16,00,17.20
2015,08,14,16,01,17.50
2015,08,14,16,02,17.60
2015,08,14,16,03,17.60
2015,08,14,16,04,17.60
2015,08,14,16,05,17.50
2015,08,14,16,06,17.40
2015,08,14,16,07,17.30
2015,08,14,16,08,17.40
2015,08,14,16,09,17.40
2015,08,14,16,10,17.50
2015,08,14,16,11,17.60
2015,08,14,16,12,17.80
2015,08,14,16,13,17.70
2015,08,14,16,14,17.80
2015,08,14,16,15,17.70
2015,08,14,16,16,17.50
2015,08,14,16,17,17.40
2015,08,14,16,18,17.60
2015,08,14,16,19,17.80
2015,08,14,16,20,18.00
2015,08,14,16,21,18.20
2015,08,14,16,22,18.30
2015,08,14,16,23,18.40
2015,08,14,16,24,18.50
2015,08,14,16,25,18.60
2015,08,14,16,26,18.60
2015,08,14,16,27,18.60
2015,08,14,16,28,18.50
2015,08,14,16,29,18.30
2015,08,14,16,30,18.30
2015,08,14,16,31,18.40
2015,08,14,16,32,18.40
2015,08,14,16,33,18.50
2015,08,14,16,34,18.50
2015,08,14,16,35,18.40
2015,08,14,16,36,18.30
2015,08,14,16,37,18.10
2015,08,14,16,38,18.00
2015,08,14,16,39,18.00
2015,08,14,16,40,18.00
2015,08,14,16,41,17.90
2015,08,14,16,42,17.70
2015,08,14,16,43,17.50
2015,08,14,16,44,17.40
2015,08,14,16,45,17.70
2015,08,14,16,46,18.10
2015,08,14,16,47,18.30
2015,08,14,16,48,18.30
2015,08,14,16,49,18.30
2015,08,14,16,50,18.30
2015,08,14,16,51,18.30
2015,08,14,16,52,18.10
2015,08,14,16,53,17.80
2015,08,14,16,54,17.70
2015,08,14,16,55,17.70
2015,08,14,16,56,17.60
2015,08,14,16,57,17.70
2015,08,14,16,58,17.80
2015,08,14,16,59,17.70
2015,08,14,17,00,17.60
2015,08,14,17,01,17.60
2015,08,14,17,02,17.70
2015,08,14,17,03,17.70
2015,08,14,17,04,17.60
2015,08,14,17,05,17.50
2015,08,14,17,06,17.30
2015,08,14,17,07,17.30
2015,08,14,17,08,17.50
2015,08,14,17,09,17.70
2015,08,14,17,10,17.70
2015,08,14,17,11,17.60
2015,08,14,17,12,17.50
2015,08,14,17,13,17.40
2015,08,14,17,14,17.20
2015,08,14,17,15,17.00
2015,08,14,17,16,17.10
2015,08,14,17,17,17.20
2015,08,14,17,18,17.40
2015,08,14,17,19,17.50